GW6634 Weather Reports


time (UTC)temp
C
wind
direction
speed
KPH
gust
KPH
rain 1hr
cm
rain 24hr
cm
rain mn
cm
humidity
%
barometer
mb
20260906141459 30 304 4.8 6.4 0.00 0.00 0.00 77 1013.4
20260906140958 30 310 4.8 11.3 0.00 0.00 0.00 78 1013.4
20260906140459 30 318 6.4 11.3 0.00 0.00 0.00 78 1013.5
20260906135958 30 310 3.2 8.0 0.00 0.00 0.00 79 1013.6
20260906135458 29 303 4.8 8.0 0.00 0.00 0.00 79 1013.6
20260906134958 29 297 1.6 3.2 0.00 0.00 0.00 81 1013.6
20260906134458 28 278 4.8 6.4 0.00 0.00 0.00 84 1013.6
20260906133958 28 289 8.0 9.7 0.00 0.00 0.00 85 1013.5
20260906133458 28 276 6.4 6.4 0.00 0.00 0.00 86 1013.5
20260906132958 28 273 8.0 9.7 0.00 0.00 0.00 87 1013.5
20260906132458 28 274 9.7 9.7 0.00 0.00 0.00 87 1013.6
20260906131959 28 273 9.7 11.3 0.00 0.00 0.00 86 1013.5
20260906131500 28 278 9.7 11.3 0.00 0.00 0.00 86 1013.5
20260906130958 28 290 6.4 9.7 0.00 0.00 0.00 86 1013.6
20260906130459 28 286 6.4 8.0 0.00 0.00 0.00 87 1013.6
20260906125958 28 276 9.7 11.3 0.00 0.00 0.00 87 1013.6
20260906125458 28 286 6.4 9.7 0.00 0.00 0.00 87 1013.6
20260906124958 27 299 6.4 8.0 0.00 0.00 0.00 86 1013.5
20260906124458 27 283 6.4 6.4 0.00 0.00 0.00 87 1013.4
20260906123959 27 275 6.4 6.4 0.00 0.00 0.00 86 1013.3
20260906123458 27 286 3.2 4.8 0.00 0.00 0.00 87 1013.3
20260906122958 27 290 3.2 4.8 0.00 0.00 0.00 87 1013.2
20260906122458 27 290 3.2 4.8 0.00 0.00 0.00 88 1013.2
20260906121958 27 287 3.2 6.4 0.00 0.00 0.00 88 1013.3
20260906121458 27 298 3.2 6.4 0.00 0.00 0.00 89 1013.3
20260906120958 27 290 4.8 6.4 0.00 0.00 0.00 89 1013.3
20260906120458 26 287 3.2 6.4 0.00 0.00 0.00 89 1013.2
20260906115958 26 295 3.2 4.8 0.00 0.00 0.00 90 1013.2
20260906115458 26 256 3.2 4.8 0.00 0.00 0.00 90 1013.1
20260906114958 26 290 3.2 4.8 0.00 0.00 0.00 91 1013.0
20260906114458 26 299 3.2 3.2 0.00 0.00 0.00 91 1012.9
20260906113958 26 299 3.2 4.8 0.00 0.00 0.00 92 1012.8
20260906113458 26 295 3.2 3.2 0.00 0.00 0.00 92 1012.7
20260906113002 26 305 4.8 6.4 0.00 0.00 0.00 92 1012.6
20260906112459 26 293 3.2 3.2 0.00 0.00 0.00 92 1012.6
20260906111958 26 285 1.6 3.2 0.00 0.00 0.00 92 1012.6
20260906111458 26 299 3.2 6.4 0.00 0.00 0.00 92 1012.7
20260906110958 26 304 3.2 4.8 0.00 0.00 0.00 92 1012.7
20260906110458 26 308 3.2 4.8 0.00 0.00 0.00 92 1012.7
20260906105959 26 306 4.8 6.4 0.00 0.00 0.00 91 1012.7
20260906105458 26 309 4.8 6.4 0.00 0.00 0.00 91 1012.7
20260906104958 26 309 3.2 6.4 0.00 0.00 0.00 91 1012.7
20260906104458 26 315 4.8 8.0 0.00 0.00 0.00 91 1012.7
20260906104000 26 315 4.8 8.0 0.00 0.00 0.00 91 1012.6
20260906103458 26 309 3.2 6.4 0.00 0.00 0.00 91 1012.6
20260906102958 26 303 3.2 6.4 0.00 0.00 0.00 91 1012.6
20260906102459 26 323 8.0 9.7 0.00 0.00 0.00 91 1012.5
20260906101958 26 319 3.2 6.4 0.00 0.00 0.00 91 1012.4
20260906101458 26 320 4.8 8.0 0.00 0.00 0.00 91 1012.5
20260906100958 26 311 4.8 6.4 0.00 0.00 0.00 91 1012.4
20260906100459 26 317 6.4 8.0 0.00 0.00 0.00 91 1012.4
20260906095959 26 325 6.4 11.3 0.00 0.00 0.00 91 1012.3
20260906095459 26 317 6.4 9.7 0.00 0.00 0.00 91 1012.3
20260906094958 26 318 4.8 8.0 0.00 0.00 0.00 91 1012.2
20260906094459 26 314 6.4 8.0 0.00 0.00 0.00 91 1012.2
20260906093958 26 319 8.0 9.7 0.00 0.00 0.00 91 1012.2
20260906093500 26 321 9.7 11.3 0.00 0.00 0.00 91 1012.1
20260906092958 26 310 3.2 6.4 0.00 0.00 0.00 91 1012.0
20260906092458 26 320 8.0 12.9 0.00 0.00 0.00 91 1012.0
20260906091958 26 316 4.8 8.0 0.00 0.00 0.00 91 1011.9
20260906091458 26 317 6.4 9.7 0.00 0.00 0.00 91 1011.9
20260906090958 26 308 4.8 8.0 0.00 0.00 0.00 91 1012.0
20260906090459 26 314 4.8 8.0 0.00 0.00 0.00 91 1011.9
20260906085959 26 314 6.4 9.7 0.00 0.00 0.00 91 1011.9
20260906085458 26 296 3.2 8.0 0.00 0.00 0.00 91 1011.8
20260906084958 26 311 6.4 8.0 0.00 0.00 0.00 91 1011.8
20260906084459 26 305 4.8 6.4 0.00 0.00 0.00 91 1011.7
20260906083959 26 308 3.2 8.0 0.00 0.00 0.00 90 1011.7
20260906083458 26 303 3.2 4.8 0.00 0.00 0.00 90 1011.7
20260906082959 26 310 4.8 9.7 0.00 0.00 0.00 90 1011.8
20260906082459 26 309 4.8 9.7 0.00 0.00 0.00 90 1011.8
20260906081958 26 316 6.4 9.7 0.00 0.00 0.00 90 1011.8
20260906081458 26 299 4.8 9.7 0.00 0.00 0.00 90 1011.8
20260906080958 26 315 4.8 8.0 0.00 0.00 0.00 90 1011.7
20260906080459 27 316 4.8 8.0 0.00 0.00 0.00 90 1011.7
20260906075958 27 301 3.2 6.4 0.00 0.00 0.00 89 1011.7
20260906075458 27 317 4.8 8.0 0.00 0.00 0.00 89 1011.8
20260906074959 27 303 6.4 9.7 0.00 0.00 0.00 89 1011.8
20260906074458 27 291 6.4 8.0 0.00 0.00 0.00 89 1011.7
20260906073959 27 291 8.0 11.3 0.00 0.00 0.00 88 1011.7
20260906073458 27 283 12.9 14.5 0.00 0.00 0.00 88 1011.7
20260906072958 27 281 11.3 14.5 0.00 0.00 0.00 89 1011.7
20260906072458 27 301 8.0 9.7 0.00 0.00 0.00 88 1011.8
20260906071958 27 280 14.5 14.5 0.00 0.00 0.00 88 1011.8
20260906071458 27 283 11.3 14.5 0.00 0.00 0.00 89 1011.8
20260906070958 27 296 8.0 11.3 0.00 0.00 0.00 88 1011.8
20260906070458 27 286 9.7 11.3 0.00 0.00 0.00 88 1011.8
20260906065958 27 281 9.7 11.3 0.00 0.00 0.00 88 1011.7
20260906065459 27 304 4.8 6.4 0.00 0.00 0.00 89 1011.8
20260906064958 27 303 6.4 11.3 0.00 0.00 0.00 88 1011.9
20260906064458 27 297 9.7 12.9 0.00 0.00 0.00 88 1011.9
20260906063959 27 288 11.3 14.5 0.00 0.00 0.00 88 1011.8
20260906063458 27 293 11.3 14.5 0.00 0.00 0.00 88 1011.8
20260906062958 27 285 12.9 16.1 0.00 0.00 0.00 87 1011.8
20260906062459 27 282 11.3 14.5 0.00 0.00 0.00 87 1011.8
20260906061958 27 278 14.5 16.1 0.00 0.00 0.00 88 1011.8
20260906061501 27 280 11.3 14.5 0.00 0.00 0.00 88 1011.8
20260906060959 27 282 12.9 12.9 0.00 0.00 0.00 88 1011.9
20260906060458 27 270 11.3 12.9 0.00 0.00 0.00 88 1011.9
20260906055958 27 263 14.5 16.1 0.00 0.00 0.00 88 1012.0
20260906055459 27 260 12.9 14.5 0.00 0.00 0.00 88 1012.0
20260906054959 27 264 11.3 12.9 0.00 0.00 0.00 87 1012.2
20260906054459 27 268 11.3 12.9 0.00 0.00 0.00 88 1012.2
20260906053959 27 265 14.5 16.1 0.00 0.00 0.00 88 1012.1
20260906053458 27 260 12.9 14.5 0.00 0.00 0.00 88 1012.2
20260906052958 27 262 14.5 16.1 0.00 0.00 0.00 88 1012.3
20260906052459 27 269 12.9 14.5 0.00 0.00 0.00 88 1012.5
20260906051958 27 274 11.3 12.9 0.00 0.00 0.00 88 1012.6
20260906051458 27 275 11.3 11.3 0.00 0.00 0.00 88 1012.6
20260906050959 27 272 11.3 12.9 0.00 0.00 0.00 88 1012.7
20260906050458 27 270 11.3 14.5 0.00 0.00 0.00 88 1012.7
20260906045958 27 281 12.9 14.5 0.00 0.00 0.00 87 1012.6
20260906045458 27 282 14.5 16.1 0.00 0.00 0.00 87 1012.6
20260906044958 27 292 9.7 12.9 0.00 0.00 0.00 88 1012.6
20260906044458 27 292 4.8 6.4 0.00 0.00 0.00 88 1012.6
20260906043958 27 298 6.4 8.0 0.00 0.00 0.00 89 1012.7
20260906043459 27 313 4.8 6.4 0.00 0.00 0.00 88 1012.7
20260906042958 27 304 4.8 6.4 0.00 0.00 0.00 88 1012.8
20260906042458 27 291 4.8 4.8 0.00 0.00 0.00 88 1012.9
20260906041958 27 307 6.4 8.0 0.00 0.00 0.00 88 1012.8
20260906041458 27 290 6.4 9.7 0.00 0.00 0.00 88 1012.8
20260906040958 27 295 4.8 8.0 0.00 0.00 0.00 88 1012.9
20260906040458 27 308 6.4 8.0 0.00 0.00 0.00 87 1013.1
20260906035958 28 308 6.4 9.7 0.00 0.00 1.22 87 1013.0
20260906035458 28 303 6.4 9.7 0.00 0.00 1.22 87 1013.0
20260906034958 28 295 11.3 17.7 0.00 0.00 1.22 87 1013.1
20260906034458 28 284 12.9 16.1 0.00 0.00 1.22 87 1013.0
20260906033959 28 298 11.3 14.5 0.00 0.00 1.22 86 1013.0
20260906033458 28 290 14.5 19.3 0.00 0.00 1.22 86 1013.0
20260906032959 28 285 14.5 16.1 0.00 0.00 1.22 85 1012.8
20260906032501 28 283 14.5 20.9 0.00 0.00 1.22 85 1013.0
20260906031958 28 272 16.1 19.3 0.00 0.00 1.22 85 1012.9
20260906031458 28 273 16.1 19.3 0.00 0.00 1.22 85 1013.0
20260906030958 28 275 16.1 19.3 0.00 0.00 1.22 84 1013.0
20260906030459 28 273 17.7 19.3 0.00 0.00 1.22 84 1013.0
20260906025958 28 278 16.1 17.7 0.00 0.00 1.22 84 1012.9
20260906025458 28 268 17.7 20.9 0.00 0.00 1.22 84 1012.8
20260906024958 28 267 20.9 22.5 0.00 0.00 1.22 83 1012.7
20260906024458 28 260 17.7 20.9 0.00 0.00 1.22 83 1012.8
20260906023959 28 269 22.5 25.7 0.00 0.00 1.22 83 1012.7
20260906023459 28 264 19.3 20.9 0.00 0.00 1.22 84 1012.6
20260906022958 28 258 16.1 17.7 0.00 0.00 1.22 84 1012.7
20260906022458 28 261 17.7 19.3 0.00 0.00 1.22 84 1012.6
20260906021958 28 255 19.3 20.9 0.00 0.00 1.22 84 1012.5
20260906021459 28 256 16.1 17.7 0.00 0.00 1.22 85 1012.4
20260906020959 28 268 14.5 17.7 0.00 0.00 1.22 84 1012.5
20260906020458 28 257 14.5 14.5 0.00 0.00 1.22 84 1012.4
20260906015958 28 254 12.9 14.5 0.00 0.00 1.22 85 1012.4
20260906015458 29 249 14.5 16.1 0.00 0.00 1.22 84 1012.3
20260906014958 29 261 14.5 16.1 0.00 0.00 1.22 85 1012.3
20260906014458 29 264 12.9 14.5 0.00 0.00 1.22 84 1012.3
20260906013959 29 255 12.9 14.5 0.00 0.00 1.22 84 1012.2
20260906013459 29 259 14.5 14.5 0.00 0.00 1.22 84 1012.1
20260906012959 29 257 12.9 14.5 0.00 0.00 1.22 84 1012.1
20260906012458 29 249 12.9 14.5 0.00 0.00 1.22 84 1012.0
20260906011958 29 250 14.5 16.1 0.00 0.00 1.22 83 1011.9
20260906011458 29 259 14.5 16.1 0.00 0.00 1.22 83 1011.8
20260906010958 29 260 16.1 17.7 0.00 0.00 1.22 83 1011.9
20260906010459 29 263 14.5 16.1 0.00 0.00 1.22 82 1012.0
20260906005958 29 256 12.9 14.5 0.00 0.00 1.22 83 1012.0
20260906005458 29 252 14.5 16.1 0.00 0.00 1.22 82 1012.0
20260906004959 29 260 14.5 16.1 0.00 0.00 1.22 81 1011.9
20260906004503 29 251 12.9 14.5 0.00 0.00 1.22 82 1011.9
20260906003958 29 253 14.5 16.1 0.00 0.00 1.22 82 1011.8
20260906003458 29 250 14.5 16.1 0.00 0.00 1.22 81 1011.6
20260906002958 29 239 12.9 12.9 0.00 0.00 1.22 82 1011.6
20260906002458 29 243 12.9 14.5 0.00 0.00 1.22 83 1011.6
20260906002000 29 242 16.1 17.7 0.00 0.00 1.22 81 1011.6
20260906001458 29 252 16.1 17.7 0.00 0.00 1.22 81 1011.6
20260906000958 29 259 14.5 17.7 0.00 0.00 1.22 82 1011.7
20260906000501 30 256 14.5 16.1 0.00 0.00 1.22 81 1011.8
20260905235958 30 256 14.5 17.7 0.00 0.00 1.22 81 1011.8
20260905235458 30 242 14.5 17.7 0.00 0.00 1.22 80 1011.7
20260905234958 30 242 17.7 19.3 0.00 0.00 1.22 80 1011.7
20260905234458 30 239 12.9 14.5 0.00 0.00 1.22 81 1011.7
20260905233958 30 237 11.3 12.9 0.00 0.00 1.22 82 1011.7
20260905233458 30 227 16.1 20.9 0.00 0.00 1.22 81 1011.6
20260905233000 30 233 14.5 16.1 0.00 0.00 1.22 81 1011.7
20260905232459 30 231 14.5 17.7 0.00 0.00 1.22 82 1011.8
20260905231958 30 230 14.5 19.3 0.00 0.00 1.22 82 1011.8
20260905231458 30 228 14.5 16.1 0.00 0.00 1.22 81 1011.9
20260905230958 30 233 11.3 12.9 0.00 0.00 1.22 80 1011.9
20260905230458 30 227 14.5 16.1 0.00 0.00 1.22 80 1011.9
20260905225958 30 234 12.9 14.5 0.00 0.00 1.22 78 1012.0
20260905225458 30 244 14.5 14.5 0.00 0.00 1.22 79 1012.1
20260905224958 30 237 11.3 14.5 0.00 0.00 1.22 77 1012.2
20260905224458 30 262 8.0 9.7 0.00 0.00 1.22 75 1012.3
20260905224001 30 262 6.4 8.0 0.00 0.00 1.22 75 1012.3
20260905223459 30 250 8.0 9.7 0.00 0.00 1.22 76 1012.3
20260905222958 30 233 11.3 12.9 0.00 0.00 1.22 76 1012.3
20260905222458 30 261 6.4 9.7 0.00 0.00 1.22 73 1012.4
20260905222001 30 252 11.3 12.9 0.00 0.00 0.41 74 1012.4
20260905221458 30 250 9.7 11.3 0.00 0.00 0.41 73 1012.4
20260905220958 30 220 8.0 9.7 0.00 0.00 0.41 76 1012.5
20260905220459 30 234 9.7 12.9 0.00 0.00 0.41 78 1012.4
20260905215958 30 231 9.7 11.3 0.00 0.00 0.41 80 1012.3
20260905215458 29 233 14.5 17.7 0.00 0.00 0.41 79 1012.3
20260905214958 29 233 17.7 19.3 0.00 0.00 0.36 82 1012.1
20260905214458 28 231 14.5 17.7 0.00 0.00 0.36 85 1012.1
20260905213959 28 284 4.8 8.0 0.10 0.00 0.33 86 1012.3
20260905213459 29 277 14.5 20.9 3.02 0.00 0.28 84 1012.5
20260905212958 29 245 22.5 25.7 0.00 0.00 0.23 82 1012.3
20260905212458 29 237 22.5 25.7 0.00 0.00 0.23 82 1012.2
20260905211958 30 227 20.9 24.1 0.00 0.00 0.23 82 1012.4
20260905211458 30 226 20.9 24.1 0.00 0.00 0.23 81 1012.3
20260905210958 30 223 22.5 25.7 0.00 0.00 0.23 82 1012.2
20260905210458 30 234 24.1 27.4 0.00 0.00 0.23 78 1012.2
20260905205958 30 233 24.1 30.6 0.00 0.00 0.23 76 1012.0
20260905205458 30 223 20.9 24.1 0.00 0.00 0.23 77 1012.2
20260905204958 30 231 12.9 14.5 0.00 0.00 0.23 75 1012.3
20260905204458 30 239 11.3 14.5 0.00 0.00 0.23 77 1012.3
20260905203959 30 232 17.7 20.9 0.00 0.00 0.23 74 1012.2
20260905203458 30 229 14.5 17.7 0.00 0.00 0.23 76 1012.2
20260905202958 30 243 19.3 24.1 0.00 0.00 0.23 77 1012.2
20260905202459 30 231 20.9 24.1 0.00 0.00 0.23 76 1012.3
20260905202000 30 235 22.5 25.7 0.00 0.00 0.23 76 1012.4
20260905201458 30 239 19.3 20.9 0.00 0.00 0.23 77 1012.5
20260905200958 30 224 22.5 24.1 0.00 0.00 0.23 76 1012.5
20260905200458 30 235 17.7 20.9 0.00 0.00 0.23 75 1012.5
20260905195959 30 229 14.5 17.7 0.00 0.00 0.23 76 1012.5
20260905195459 30 238 17.7 20.9 0.00 0.00 0.23 75 1012.4
20260905194958 30 241 20.9 22.5 0.00 0.00 0.23 74 1012.5
20260905194458 30 247 19.3 24.1 0.00 0.00 0.23 76 1012.7
20260905193958 30 233 17.7 20.9 0.00 0.00 0.23 76 1012.8
20260905193458 30 236 19.3 22.5 0.00 0.00 0.23 77 1012.9
20260905192959 30 231 20.9 25.7 0.00 0.00 0.23 78 1012.9
20260905192458 30 231 20.9 24.1 0.00 0.00 0.23 76 1012.9
20260905191959 30 232 20.9 24.1 0.00 0.00 0.23 76 1013.0
20260905191459 30 232 19.3 20.9 0.00 0.00 0.23 76 1012.9
20260905190527 31 230 16.1 20.9 0.00 0.00 0.23 74 1013.1
20260905185958 31 236 12.9 17.7 0.00 0.00 0.23 71 1013.2
20260905185500 31 233 6.4 8.0 0.00 0.00 0.23 71 1013.1
20260905184958 31 234 8.0 9.7 0.00 0.00 0.23 71 1013.1
20260905184459 31 234 8.0 9.7 0.00 0.00 0.23 71 1013.1
20260905183958 31 233 6.4 9.7 0.00 0.00 0.23 71 1013.1
20260905183458 31 230 6.4 8.0 0.00 0.00 0.23 72 1013.2
20260905182958 31 229 6.4 6.4 0.00 0.00 0.23 72 1013.3
20260905182458 31 228 6.4 8.0 0.00 0.00 0.23 71 1013.5
20260905181958 30 228 4.8 6.4 0.00 0.00 0.23 72 1013.5
20260905181459 30 251 8.0 9.7 0.00 0.00 0.23 72 1013.6
20260905180959 30 261 8.0 11.3 0.00 0.00 0.23 74 1013.7
20260905180458 30 264 9.7 11.3 0.00 0.00 0.23 74 1013.7
20260905175958 30 268 9.7 11.3 0.00 0.00 0.25 76 1013.8
20260905175458 29 267 12.9 14.5 0.00 0.00 0.25 76 1013.8
20260905174959 29 272 12.9 14.5 0.00 0.00 0.25 77 1013.8
20260905174459 29 295 6.4 9.7 0.00 0.00 0.25 80 1014.0
20260905173958 29 276 11.3 16.1 0.00 0.00 0.25 79 1014.1
20260905173458 29 287 8.0 9.7 0.00 0.00 0.25 79 1014.1
20260905172958 29 292 8.0 9.7 0.00 0.00 0.25 80 1014.2
20260905172458 28 269 6.4 8.0 0.00 0.00 0.25 85 1014.3
20260905171958 28 269 6.4 11.3 0.00 0.00 0.23 87 1014.2
20260905171458 28 290 4.8 6.4 0.00 0.00 0.23 88 1014.3
20260905170958 28 275 4.8 8.0 0.00 0.00 0.23 90 1014.4
20260905170458 27 259 4.8 4.8 0.00 0.00 0.18 91 1014.5
20260905165958 27 262 4.8 6.4 0.00 0.00 0.18 91 1014.6
20260905165458 27 277 4.8 6.4 0.00 0.00 0.51 91 1014.6
20260905164959 27 282 3.2 3.2 0.00 0.00 0.51 90 1014.5
20260905164458 27 300 3.2 8.0 0.69 0.00 0.48 89 1014.5
20260905163958 28 301 4.8 6.4 3.25 0.00 0.36 85 1014.6
20260905163459 30 285 17.7 22.5 3.17 0.00 0.10 81 1014.5
20260905162959 30 274 9.7 11.3 0.00 0.00 0.00 73 1014.5
20260905162459 30 288 6.4 9.7 0.00 0.00 0.00 74 1014.6
20260905161958 30 275 11.3 12.9 0.00 0.00 0.00 73 1014.5
20260905161459 30 277 9.7 12.9 0.00 0.00 0.00 71 1014.6
20260905160959 30 289 4.8 6.4 0.00 0.00 0.00 72 1014.7
20260905160458 30 268 8.0 9.7 0.00 0.00 0.00 74 1014.7
20260905160003 30 270 9.7 9.7 0.00 0.00 0.00 74 1014.7
20260905155458 30 272 9.7 11.3 0.00 0.00 0.00 75 1014.7
20260905154958 30 260 8.0 9.7 0.00 0.00 0.00 77 1014.7
20260905154458 29 251 6.4 6.4 0.00 0.00 0.00 78 1014.7
20260905153958 29 260 8.0 9.7 0.00 0.00 0.00 79 1014.6
20260905153459 30 244 6.4 8.0 0.00 0.00 0.00 78 1014.7
20260905153000 30 264 8.0 9.7 0.00 0.00 0.00 76 1014.8
20260905152458 30 255 8.0 9.7 0.00 0.00 0.00 77 1014.9
20260905151959 30 278 3.2 4.8 0.00 0.00 0.00 76 1015.0
20260905151458 29 299 1.6 3.2 0.00 0.00 0.00 79 1015.0
20260905150958 29 286 3.2 6.4 0.00 0.00 0.00 78 1015.0
20260905150458 29 263 4.8 6.4 0.00 0.00 0.00 82 1015.0
20260905145958 30 295 6.4 8.0 0.00 0.00 0.00 81 1015.0
20260905145459 30 321 3.2 6.4 0.00 0.00 0.00 80 1014.9
20260905144959 30 293 3.2 6.4 0.00 0.00 0.00 80 1015.0
20260905144458 30 306 3.2 6.4 0.00 0.00 0.00 81 1015.0
20260905143958 30 331 1.6 3.2 0.00 0.00 0.00 81 1015.1
20260905143500 29 330 1.6 6.4 0.00 0.00 0.00 83 1015.2
20260905142959 29 314 3.2 8.0 0.00 0.00 0.00 84 1015.2
20260905142458 28 359 4.8 8.0 0.00 0.00 0.00 85 1015.0
20260905141959 28 354 4.8 11.3 0.00 0.00 0.00 85 1015.0